Weather History for Fort Myers Airport, FL

Change the Weather History Date:

Tuesday, August 20, 2013

  Actual Average Record
Temperature  
Mean Temperature 80 °F -  
Max Temperature 88 °F 91 °F 98 °F (1987)
Min Temperature 73 °F 74 °F 70 °F (1948)
Cooling Degree Days 15    
Growing Degree Days 30 (Base 50)    
Moisture  
Dew Point 73 °F    
Average Humidity 81    
Maximum Humidity 96    
Minimum Humidity 62    
Precipitation  
Precipitation 0.05 in - - ()
Sea Level Pressure  
Sea Level Pressure 30.02 in    
Wind  
Wind Speed 5 mph (ENE)    
Max Wind Speed 13 mph    
Max Gust Speed 17 mph    
Visibility 10 miles    
Events Rain , Thunderstorm    
Averages and records for this station are not official NWS values.
T = Trace of Precipitation, MM = Missing Value Source: NWS Daily Summary

Daily Weather History Graph

Daily Weather History Graph

Search for Another Location

Airport:

Trip Planner

Search our weather history database for the weather conditions in past years. The results will help you decide how hot, cold, wet, or windy it might be!

Date:

Astronomy

Aug. 20, 2013 Rise Set
Actual Time 7:01 AM EDT 7:58 PM EDT
Civil Twilight 6:37 AM EDT 8:22 PM EDT
Nautical Twilight 6:09 AM EDT 8:50 PM EDT
Astronomical Twilight 5:40 AM EDT 9:19 PM EDT
Moon 7:35 PM EDT (8/20) 6:27 AM EDT (8/20)
Length of Visible Light 13h 45m
Length of Day
12h 57m
Full, 100% of the Moon is Illuminated
Aug 20
Full
Aug 20
Full
Aug 28
Last Quarter
Sep 5
New
Sep 12
First Quarter

Hourly Weather History & Observations

Time (EDT) Temp. Heat Index Dew Point Humidity Pressure Visibility Wind Dir Wind Speed Gust Speed Precip Events Conditions
12:53 AM 73.0 °F - 71.1 °F 93% 30.04 in 10.0 mi NNE 4.6 mph - N/A   Clear
1:53 AM 73.0 °F - 71.1 °F 93% 30.02 in 10.0 mi ENE 4.6 mph - N/A   Clear
2:53 AM 73.0 °F - 72.0 °F 96% 30.02 in 10.0 mi NE 5.8 mph - N/A   Clear
3:53 AM 73.0 °F - 71.1 °F 93% 30.00 in 10.0 mi NE 3.5 mph - N/A   Clear
4:06 AM 73.4 °F - 71.6 °F 94% 30.00 in 10.0 mi NE 3.5 mph - N/A Thunderstorm Clear
4:21 AM 73.4 °F - 71.6 °F 94% 30.00 in 10.0 mi NE 4.6 mph - N/A   Clear
4:53 AM 73.9 °F - 72.0 °F 93% 30.00 in 10.0 mi ENE 5.8 mph - N/A   Clear
5:53 AM 73.9 °F - 72.0 °F 93% 30.00 in 10.0 mi ENE 5.8 mph - N/A   Clear
6:53 AM 73.9 °F - 72.0 °F 93% 30.01 in 10.0 mi ENE 3.5 mph - N/A   Clear
7:53 AM 75.0 °F - 73.0 °F 94% 30.02 in 10.0 mi ENE 5.8 mph - N/A   Clear
8:53 AM 80.1 °F 85.1 °F 75.0 °F 85% 30.03 in 10.0 mi East 9.2 mph - N/A   Clear
9:53 AM 82.9 °F 90.2 °F 75.0 °F 77% 30.04 in 10.0 mi ESE 10.4 mph - N/A   Clear
10:53 AM 84.9 °F 92.1 °F 73.9 °F 69% 30.04 in 10.0 mi East 12.7 mph - N/A   Partly Cloudy
11:53 AM 87.1 °F 94.5 °F 73.0 °F 63% 30.05 in 10.0 mi ESE 10.4 mph - N/A   Scattered Clouds
12:53 PM 87.1 °F 94.5 °F 73.0 °F 63% 30.04 in 10.0 mi East 5.8 mph - N/A   Partly Cloudy
1:53 PM 87.1 °F 94.5 °F 73.0 °F 63% 30.03 in 10.0 mi East 8.1 mph - N/A   Mostly Cloudy
2:00 PM 87.8 °F 95.6 °F 73.4 °F 62% 30.04 in 10.0 mi ESE 11.5 mph 17.3 mph 0.00 in Rain , Thunderstorm Light Rain
2:20 PM 78.8 °F - 71.6 °F 78% 30.03 in 5.0 mi SSW 5.8 mph - 0.05 in Rain , Thunderstorm Light Rain
2:53 PM 82.0 °F 88.6 °F 75.0 °F 79% 30.01 in 9.0 mi Calm Calm - 0.05 in Thunderstorm Scattered Clouds
3:04 PM 82.4 °F 89.5 °F 75.2 °F 79% 30.03 in 10.0 mi SW 5.8 mph - N/A   Partly Cloudy
3:53 PM 80.1 °F 84.2 °F 73.0 °F 79% 30.01 in 10.0 mi Calm Calm - N/A   Clear
4:53 PM 82.9 °F 89.4 °F 73.9 °F 74% 30.01 in 10.0 mi Calm Calm - N/A   Scattered Clouds
5:53 PM 84.0 °F 90.2 °F 73.0 °F 69% 30.00 in 10.0 mi North 3.5 mph - N/A   Clear
6:53 PM 82.9 °F 88.8 °F 73.0 °F 72% 29.99 in 10.0 mi North 5.8 mph - N/A   Clear
7:53 PM 81.0 °F 85.8 °F 73.0 °F 77% 30.00 in 10.0 mi NNE 4.6 mph - N/A   Scattered Clouds
8:53 PM 80.1 °F 85.1 °F 75.0 °F 85% 30.03 in 10.0 mi ENE 4.6 mph - N/A   Partly Cloudy
9:53 PM 79.0 °F - 73.0 °F 82% 30.05 in 10.0 mi NNE 3.5 mph - N/A   Clear
10:53 PM 79.0 °F - 73.9 °F 84% 30.06 in 10.0 mi NNE 6.9 mph - N/A   Clear
11:53 PM 78.1 °F - 73.9 °F 87% 30.05 in 10.0 mi ENE 5.8 mph - N/A   Clear